Regional Weather Roundup
Issued by NWS

Home | Current Version | Previous Version | Text Only | Print | Product List | Glossary On
Versions: 1 2 3 4 5 6 7 8 9 10 11 12 13 14 15 16 17 18 19 20 21 22 23 24 25 26 27 28 29 30 31 32 33 34 35 36 37 38 39 40 41 42 43 44 45 46 47 48 49 50
000
ASUS43 KIND 010509
RWRIN

WEATHER ROUNDUP FOR INDIANA
NATIONAL WEATHER SERVICE INDIANAPOLIS IN
100 AM EDT FRI AUG 01 2014

NOTE: "FAIR" INDICATES FEW OR NO CLOUDS BELOW 12,000 FEET WITH NO
SIGNIFICANT WEATHER AND/OR OBSTRUCTIONS TO VISIBILITY.

* - STATION DOES NOT REPORT WEATHER SUCH AS PRECIPITATION OR FOG.

+ - STATION NOT QUALITY CONTROLLED BY THE NATIONAL WEATHER SERVICE.
    USE DATA WITH CAUTION...ESPECIALLY DEWPOINT AND RELATIVE
    HUMIDITY OBSERVATIONS.

INZ001>003-010>013-019-020-010600-
NORTHWEST INDIANA

CITY           SKY/WX    TMP DP  RH WIND       PRES   REMARKS
GARY /AIRPORT/ CLEAR     67  63  84 CALM      30.06R
KNOX *+        PTCLDY    62  59  88 S5        30.06S
LA PORTE +     CLEAR     60  60 100 SW5       30.07S
MICHIGAN CITY+ CLEAR     64  59  82 CALM      30.06S
MONTICELLO +   CLEAR     64  61  91 CALM      30.07S
RENSSELAER +   CLEAR     63  63 100 SW3       30.08S
VALPARAISO     MOCLDY    67  61  81 CALM      30.07R

$$

LMZ046-743>745-010600-
SOUTHERN LAKE MICHIGAN

STATION/POSITION TIME  TEMP WIND        PRES
                       AIR  DIR/SP/G
                 (UTC) (F)  (DEG/KT/KT) (MB)
MICHIGAN CITY    0500   71  180/  8/  9   N/A

$$

INZ004-005-014>016-021>024-010600-
NORTH CENTRAL INDIANA

CITY           SKY/WX    TMP DP  RH WIND       PRES   REMARKS
GOSHEN         CLEAR     65  60  84 S5        30.07S
LOGANSPORT +   CLEAR     59  55  88 CALM      30.09S
PERU/GRISSOM   CLEAR     64  64 100 SE2       30.09R
ROCHESTER +    CLEAR     68  61  77 SW3       30.09R
SOUTH BEND     CLEAR     66  59  78 CALM      30.07R
WARSAW +       CLEAR     64  61  88 CALM      30.08S

$$

INZ006>009-017-018-025>027-010600-
NORTHEAST INDIANA

CITY           SKY/WX    TMP DP  RH WIND       PRES   REMARKS
ANGOLA *+      PTCLDY    61  61 100 CALM      30.08S
AUBURN +       MOCLDY    64  61  88 CALM      30.09R
FORT WAYNE     PTCLDY    64  60  87 SW5       30.09S
HUNTINGTON +   PTCLDY    66  60  82 CALM      30.09S

$$

INZ028-029-035-036-043>045-051>053-010600-
WEST CENTRAL INDIANA

CITY           SKY/WX    TMP DP  RH WIND       PRES   REMARKS
GREENCASTLE +  CLEAR     63  61  94 CALM      30.11R
LAFAYETTE      CLEAR     62  61  96 CALM      30.08R
TERRE HAUTE    CLEAR     63  60  90 CALM      30.09R

$$

INZ030>032-037>040-046>048-054>057-064-065-010600-
CENTRAL INDIANA

CITY           SKY/WX    TMP DP  RH WIND       PRES   REMARKS
CP ATTERBURY + CLEAR     61  59  94 CALM      30.11R
INDIANAPOLIS   CLEAR     66  61  84 CALM      30.10R
-EAGLE CREEK   CLEAR     65  62  90 CALM      30.10R
KOKOMO *+      CLEAR     61  57  88 S3        30.10R
MARION +       CLEAR     58  57  96 CALM      30.11R
MT COMFORT *+  CLEAR     59 N/A N/A CALM      30.11S
SHELBYVILLE    CLEAR     63  60  90 CALM      30.10R
ZIONSVILLE +   CLEAR     61  58  90 CALM      30.11S FOG

$$

INZ033-034-041-042-049-050-058-059-010600-
EAST CENTRAL INDIANA

CITY           SKY/WX    TMP DP  RH WIND       PRES   REMARKS
MUNCIE         CLEAR     62  57  83 S3        30.11R

$$

INZ060-061-067>069-081>083-085>088-010600-
SOUTHWEST INDIANA

CITY           SKY/WX    TMP DP  RH WIND       PRES   REMARKS
EVANSVILLE     CLEAR     68  62  81 CALM      30.09R
WASHINGTON +   CLEAR     62  62  98 CALM      30.08S

$$

INZ062-063-066-070>080-084-089>092-010600-
SOUTH CENTRAL AND SOUTHEAST INDIANA

CITY           SKY/WX    TMP DP  RH WIND       PRES   REMARKS
BLOOMINGTON    CLEAR     61  59  93 CALM      30.10R FOG

$$




USA.gov is the U.S. government's official web portal to all federal, state and local government web resources and services.